Weather History for Florala, AL

Change the Weather History Date:

Saturday, November 2, 2013

  Actual Average (KCEW) Record (KCEW)
Temperature  
Mean Temperature 64 °F -  
Max Temperature 75 °F 74 °F 84 °F (2000)
Min Temperature 52 °F 50 °F 27 °F (1993)
Degree Days  
Heating Degree Days 2    
Growing Degree Days 14 (Base 50)    
Moisture  
Dew Point 49 °F    
Average Humidity 68    
Maximum Humidity 93    
Minimum Humidity 33    
Precipitation  
Precipitation 0.00 in - - ()
Sea Level Pressure  
Sea Level Pressure 29.95 in    
Wind  
Wind Speed 2 mph (NNW)    
Max Wind Speed 8 mph    
Max Gust Speed -    
Visibility 10 miles    
Events Rain    
Averages and records for this station are not official NWS values.
T = Trace of Precipitation, MM = Missing Value Source: NWS Daily Summary

Daily Weather History Graph

Daily Weather History Graph

Search for Another Location

Airport:

Trip Planner

Search our weather history database for the weather conditions in past years. The results will help you decide how hot, cold, wet, or windy it might be!

Date:

Astronomy

Nov. 02, 2013 Rise Set
Actual Time 7:01 AM CDT 5:55 PM CDT
Civil Twilight 6:36 AM CDT 6:20 PM CDT
Nautical Twilight 6:07 AM CDT 6:49 PM CDT
Astronomical Twilight 5:39 AM CDT 7:17 PM CDT
Moon 6:01 AM CDT (11/2) 5:25 PM CDT (11/2)
Length of Visible Light 11h 44m
Length of Day
10h 54m
Waning Crescent, 1% of the Moon is Illuminated
Nov 2
Waning Crescent
Nov 3
New
Nov 9
First Quarter
Nov 17
Full
Nov 25
Last Quarter

Hourly Weather History & Observations

Time (CDT) Temp. Dew Point Humidity Pressure Visibility Wind Dir Wind Speed Gust Speed Precip Events Conditions
12:58 AM 59.0 °F 55.9 °F 90% 29.89 in 10.0 mi NNW 3.5 mph - N/A   Clear
1:58 AM 57.0 °F 54.0 °F 89% 29.90 in 10.0 mi Calm Calm - N/A   Clear
2:58 AM 55.9 °F 52.0 °F 87% 29.90 in 10.0 mi Calm Calm - N/A   Clear
3:58 AM 54.0 °F 52.0 °F 93% 29.90 in 10.0 mi Calm Calm - N/A   Clear
4:58 AM 52.0 °F 50.0 °F 93% 29.88 in 10.0 mi Calm Calm - N/A   Clear
5:58 AM 53.1 °F 50.0 °F 89% 29.90 in 10.0 mi Variable 3.5 mph - N/A   Clear
6:58 AM 52.0 °F 50.0 °F 93% 29.93 in 10.0 mi Calm Calm - N/A   Clear
7:58 AM 55.0 °F 52.0 °F 89% 29.97 in 10.0 mi Calm Calm - N/A   Clear
8:58 AM 59.0 °F 52.0 °F 78% 30.03 in 10.0 mi NW 3.5 mph - 0.00 in Rain Light Rain
9:58 AM 66.0 °F 54.0 °F 65% 30.06 in 10.0 mi Variable 3.5 mph - 0.00 in   Scattered Clouds
10:58 AM 69.1 °F 54.0 °F 58% 30.06 in 10.0 mi Variable 6.9 mph - N/A   Clear
11:58 AM 73.0 °F 51.1 °F 46% 30.04 in 10.0 mi Calm Calm - N/A   Clear
12:58 PM 73.9 °F 48.0 °F 40% 30.01 in 10.0 mi Calm Calm - N/A   Clear
1:58 PM 75.9 °F 45.0 °F 33% 29.99 in 10.0 mi Variable 5.8 mph - N/A   Clear
2:58 PM 75.9 °F 46.0 °F 35% 29.93 in 10.0 mi NNW 8.1 mph - N/A   Clear
3:58 PM 73.9 °F 45.0 °F 35% 29.92 in 10.0 mi Variable 5.8 mph - N/A   Clear
4:58 PM 71.1 °F 48.0 °F 44% 29.93 in 10.0 mi Calm Calm - N/A   Clear
5:58 PM 64.0 °F 52.0 °F 65% 29.90 in 10.0 mi Calm Calm - 0.00 in   Clear
6:58 PM 62.1 °F 46.9 °F 58% 29.89 in 10.0 mi Variable 3.5 mph - 0.00 in   Clear
7:58 PM 59.0 °F 46.9 °F 64% 29.92 in 10.0 mi Variable 3.5 mph - 0.00 in Rain Light Rain
8:58 PM 57.0 °F 46.9 °F 69% 29.96 in 10.0 mi Calm Calm - 0.00 in   Clear
9:58 PM 53.1 °F 48.0 °F 83% 29.98 in 10.0 mi Calm Calm - N/A   Clear
10:58 PM 52.0 °F 45.0 °F 77% 29.99 in 10.0 mi Calm Calm - N/A   Clear
11:58 PM 52.0 °F 43.0 °F 71% 30.00 in 10.0 mi North 4.6 mph - N/A   Clear